This demonstration page uses our WeatherBlox Daily Observations layout. Learn more.

Left ArrowRight Arrow

Hourly Observations for November 6, 2016

Temp ( °F °C ) Dew Point ( °F °C ) Humidity (%) Winds ( mph kmh ) Pressure ( in mb ) Visibility ( mi km ) Precip ( " mm )
12:53 am 00:53 Clear 48 8.9 44 6.7 86 86 Calm 30.29 1026 10 16 0.00 0.00
1:53 am 01:53 Clear 47 8.3 44 6.7 90 90 Calm 30.30 1026 10 16 0.00 0.00
1:53 am 01:53 Clear 46 7.8 43 6.1 89 89 Calm 30.29 1026 10 16 0.00 0.00
2:53 am 02:53 Clear 47 8.3 43 6.1 86 86 Calm 30.30 1026 10 16 0.00 0.00
3:53 am 03:53 Clear 44 6.7 42 5.6 93 93 Calm 30.30 1026 10 16 0.00 0.00
4:53 am 04:53 Clear 43 6.1 41 5 93 93 Calm 30.30 1026 10 16 0.00 0.00
5:53 am 05:53 Clear 43 6.1 40 4.4 89 89 Calm 30.33 1027 10 16 0.00 0.00
6:53 am 06:53 Clear 42 5.6 39 3.9 89 89 Calm 30.35 1028 10 16 0.00 0.00
7:53 am 07:53 Sunny 44 6.7 41 5 89 89 Calm 30.35 1028 10 16 0.00 0.00
8:53 am 08:53 Sunny 51 10.6 45 7.2 80 80 Calm 30.36 1028 10 16 0.00 0.00
9:53 am 09:53 Sunny 61 16.1 44 6.7 54 54 N 3 6 30.35 1028 10 16 0.00 0.00
10:53 am 10:53 Sunny 66 18.9 42 5.6 42 42 E 5 7 30.33 1027 10 16 0.00 0.00
11:53 am 11:53 Sunny 68 20 40 4.4 36 36 Calm 30.30 1026 10 16 0.00 0.00
12:53 pm 12:53 Sunny 71 21.7 40 4.4 32 32 NE 8 13 30.28 1025 10 16 0.00 0.00
1:53 pm 13:53 Sunny 72 22.2 39 3.9 30 30 VRB 3 6 30.26 1025 10 16 0.00 0.00
2:53 pm 14:53 Sunny 73 22.8 36 2.2 26 26 Calm 30.24 1024 10 16 0.00 0.00
3:53 pm 15:53 Sunny 73 22.8 37 2.8 27 27 Calm 30.24 1024 10 16 0.00 0.00
4:53 pm 16:53 Sunny 69 20.6 40 4.4 35 35 NNE 3 6 30.25 1024 10 16 0.00 0.00
5:53 pm 17:53 Clear 63 17.2 44 6.7 50 50 Calm 30.25 1024 10 16 0.00 0.00
6:53 pm 18:53 Clear 58 14.4 45 7.2 62 62 Calm 30.26 1025 10 16 0.00 0.00
7:53 pm 19:53 Clear 55 12.8 45 7.2 69 69 Calm 30.27 1025 10 16 0.00 0.00
8:53 pm 20:53 Clear 53 11.7 45 7.2 74 74 Calm 30.29 1026 10 16 0.00 0.00
9:53 pm 21:53 Clear 52 11.1 45 7.2 77 77 Calm 30.29 1026 10 16 0.00 0.00
10:53 pm 22:53 Clear 50 10 44 6.7 80 80 Calm 30.29 1026 10 16 0.00 0.00
11:53 pm 23:53 Clear 49 9.4 44 6.7 83 83 NE 3 6 30.30 1026 10 16 0.00 0.00

Powered by AerisWeather